contact:dominique.lefevre@mio.osupytheas.fr, maurice.libes@osupytheas.fr, didier.mallarino@osupytheas.fr
Project:EMSO http://www.emso-fr.org/EMSO-France
Depth: 2436.0 m
Title:EMSO Ligure Ouest : Data MII capteur CSTAR
DateTime,Latitude,Longitude,Instrument_Serial,Reference_Counts,Signal_Counts,Corrected_Signal_raw_counts,Calculated_Beam_c_inverse_meters,Internal_thermistor_counts
DateTime,Latitude,Longitude,Instrument_Serial,Reference_Counts,Signal_Counts,Corrected_Signal_raw_counts,Calculated_Beam_c_inverse_meters,Internal_thermistor_counts
2019-09-16T00:02:43,42.805,6.029,CST-1368DR,7980,11175,15391,0.058,551
2019-09-16T00:05:44,42.805,6.029,CST-1368DR,7980,11176,15391,0.058,551
2019-09-16T00:08:46,42.805,6.029,CST-1368DR,7980,11175,15390,0.058,551
2019-09-16T00:11:47,42.805,6.029,CST-1368DR,7980,11173,15388,0.059,551
2019-09-16T00:14:49,42.805,6.029,CST-1368DR,7980,11175,15391,0.058,551
2019-09-16T00:17:51,42.805,6.029,CST-1368DR,7980,11178,15395,0.057,551
2019-09-16T00:20:52,42.805,6.029,CST-1368DR,7980,11172,15387,0.059,551
2019-09-16T00:23:54,42.805,6.029,CST-1368DR,7980,11173,15388,0.059,550
2019-09-16T00:26:56,42.805,6.029,CST-1368DR,7980,11175,15391,0.058,550
2019-09-16T00:29:57,42.805,6.029,CST-1368DR,7980,11176,15391,0.058,551
2019-09-16T00:32:59,42.805,6.029,CST-1368DR,7980,11178,15395,0.057,551
2019-09-16T00:36:01,42.805,6.029,CST-1368DR,7980,11177,15394,0.057,551
2019-09-16T00:39:02,42.805,6.029,CST-1368DR,7980,11177,15393,0.058,551
2019-09-16T00:42:04,42.805,6.029,CST-1368DR,7980,11176,15392,0.058,550
2019-09-16T00:45:05,42.805,6.029,CST-1368DR,7980,11176,15391,0.058,551
2019-09-16T00:48:08,42.805,6.029,CST-1368DR,7980,11172,15386,0.059,551
2019-09-16T00:51:09,42.805,6.029,CST-1368DR,7980,11178,15394,0.057,551
2019-09-16T00:54:11,42.805,6.029,CST-1368DR,7980,11176,15391,0.058,551
2019-09-16T00:57:13,42.805,6.029,CST-1368DR,7979,11143,15349,0.069,551
2019-09-16T01:00:14,42.805,6.029,CST-1368DR,7979,11172,15388,0.059,551
2019-09-16T01:03:16,42.805,6.029,CST-1368DR,7979,11171,15387,0.059,551
2019-09-16T01:06:17,42.805,6.029,CST-1368DR,7979,11175,15393,0.058,551
2019-09-16T01:09:19,42.805,6.029,CST-1368DR,7979,11176,15394,0.057,551
2019-09-16T01:12:21,42.805,6.029,CST-1368DR,7979,11177,15395,0.057,551
2019-09-16T01:15:22,42.805,6.029,CST-1368DR,7979,11175,15392,0.058,551
2019-09-16T01:18:24,42.805,6.029,CST-1368DR,7979,11176,15394,0.057,551
2019-09-16T01:21:26,42.805,6.029,CST-1368DR,7979,11176,15394,0.057,551
2019-09-16T01:24:27,42.805,6.029,CST-1368DR,7979,11176,15394,0.057,551
2019-09-16T01:27:29,42.805,6.029,CST-1368DR,7979,11176,15394,0.057,551
2019-09-16T01:30:31,42.805,6.029,CST-1368DR,7979,11174,15392,0.058,551
2019-09-16T01:33:32,42.805,6.029,CST-1368DR,7979,11176,15394,0.057,550
2019-09-16T01:36:34,42.805,6.029,CST-1368DR,7979,11176,15393,0.058,551
2019-09-16T01:39:35,42.805,6.029,CST-1368DR,7979,11177,15395,0.057,551
2019-09-16T01:42:37,42.805,6.029,CST-1368DR,7979,11174,15391,0.058,551
2019-09-16T01:45:39,42.805,6.029,CST-1368DR,7979,11176,15393,0.058,551
2019-09-16T01:48:40,42.805,6.029,CST-1368DR,7979,11175,15393,0.058,551
2019-09-16T01:51:42,42.805,6.029,CST-1368DR,7979,11176,15394,0.057,551
2019-09-16T01:54:44,42.805,6.029,CST-1368DR,7979,11175,15392,0.058,550
2019-09-16T01:57:46,42.805,6.029,CST-1368DR,7979,11176,15393,0.058,551
2019-09-16T02:00:48,42.805,6.029,CST-1368DR,7979,11177,15395,0.057,550
2019-09-16T02:03:50,42.805,6.029,CST-1368DR,7979,11176,15394,0.057,550
2019-09-16T02:06:51,42.805,6.029,CST-1368DR,7979,11176,15394,0.057,551
2019-09-16T02:09:53,42.805,6.029,CST-1368DR,7979,11176,15394,0.057,551
2019-09-16T02:12:54,42.805,6.029,CST-1368DR,7979,11175,15393,0.058,551
2019-09-16T02:15:56,42.805,6.029,CST-1368DR,7979,11175,15392,0.058,550
2019-09-16T02:18:58,42.805,6.029,CST-1368DR,7979,11174,15392,0.058,551
2019-09-16T02:21:59,42.805,6.029,CST-1368DR,7979,11175,15393,0.058,550
2019-09-16T02:25:01,42.805,6.029,CST-1368DR,7979,11176,15393,0.058,551
2019-09-16T02:28:03,42.805,6.029,CST-1368DR,7979,11176,15394,0.057,551
2019-09-16T02:31:04,42.805,6.029,CST-1368DR,7979,11175,15393,0.058,550
2019-09-16T02:34:06,42.805,6.029,CST-1368DR,7979,11176,15393,0.058,551
2019-09-16T02:37:08,42.805,6.029,CST-1368DR,7979,11175,15392,0.058,551
2019-09-16T02:40:09,42.805,6.029,CST-1368DR,7979,11175,15392,0.058,551
2019-09-16T02:43:11,42.805,6.029,CST-1368DR,7979,11173,15389,0.059,551
2019-09-16T02:46:13,42.805,6.029,CST-1368DR,7979,11175,15392,0.058,551
2019-09-16T02:49:15,42.805,6.029,CST-1368DR,7979,11173,15390,0.058,550
2019-09-16T02:52:16,42.805,6.029,CST-1368DR,7979,11175,15392,0.058,551
2019-09-16T02:55:18,42.805,6.029,CST-1368DR,7979,11173,15389,0.059,551
2019-09-16T02:58:20,42.805,6.029,CST-1368DR,7979,11170,15385,0.060,551
2019-09-16T03:01:22,42.805,6.029,CST-1368DR,7979,11173,15389,0.059,551
2019-09-16T03:04:24,42.805,6.029,CST-1368DR,7979,11173,15389,0.059,551
2019-09-16T03:07:25,42.805,6.029,CST-1368DR,7979,11174,15391,0.058,551
2019-09-16T03:10:27,42.805,6.029,CST-1368DR,7979,11173,15390,0.058,551
2019-09-16T03:13:28,42.805,6.029,CST-1368DR,7978,11175,15394,0.057,551
2019-09-16T03:16:30,42.805,6.029,CST-1368DR,7979,11174,15391,0.058,551
2019-09-16T03:19:32,42.805,6.029,CST-1368DR,7978,11173,15391,0.058,551
2019-09-16T03:22:33,42.805,6.029,CST-1368DR,7978,11174,15392,0.058,551
2019-09-16T03:25:35,42.805,6.029,CST-1368DR,7979,11173,15390,0.058,551
2019-09-16T03:28:37,42.805,6.029,CST-1368DR,7978,11174,15392,0.058,550
2019-09-16T03:31:39,42.805,6.029,CST-1368DR,7978,11173,15392,0.058,551
2019-09-16T03:34:40,42.805,6.029,CST-1368DR,7979,11174,15391,0.058,551
2019-09-16T03:37:42,42.805,6.029,CST-1368DR,7978,11172,15390,0.058,551
2019-09-16T03:40:43,42.805,6.029,CST-1368DR,7978,11173,15391,0.058,550
2019-09-16T03:43:45,42.805,6.029,CST-1368DR,7978,11173,15391,0.058,551
2019-09-16T03:46:47,42.805,6.029,CST-1368DR,7978,11173,15391,0.058,551
2019-09-16T03:49:48,42.805,6.029,CST-1368DR,7978,11170,15387,0.059,551
2019-09-16T03:52:50,42.805,6.029,CST-1368DR,7978,11169,15386,0.059,551
2019-09-16T03:55:52,42.805,6.029,CST-1368DR,7978,11172,15390,0.058,551
2019-09-16T03:58:53,42.805,6.029,CST-1368DR,7978,11171,15389,0.059,551
2019-09-16T04:01:55,42.805,6.029,CST-1368DR,7978,11171,15389,0.059,551
2019-09-16T04:04:56,42.805,6.029,CST-1368DR,7978,11171,15389,0.059,551
2019-09-16T04:07:58,42.805,6.029,CST-1368DR,7978,11172,15390,0.058,551
2019-09-16T04:11:00,42.805,6.029,CST-1368DR,7978,11174,15392,0.058,551
2019-09-16T04:14:01,42.805,6.029,CST-1368DR,7978,11172,15390,0.058,551
2019-09-16T04:17:03,42.805,6.029,CST-1368DR,7978,11173,15392,0.058,551
2019-09-16T04:20:05,42.805,6.029,CST-1368DR,7978,11174,15393,0.058,551
2019-09-16T04:23:06,42.805,6.029,CST-1368DR,7978,11172,15390,0.058,551
2019-09-16T04:26:08,42.805,6.029,CST-1368DR,7978,11174,15393,0.058,551
2019-09-16T04:29:09,42.805,6.029,CST-1368DR,7978,11173,15392,0.058,551
2019-09-16T04:32:11,42.805,6.029,CST-1368DR,7978,11170,15387,0.059,551
2019-09-16T04:35:13,42.805,6.029,CST-1368DR,7978,11174,15392,0.058,551
2019-09-16T04:38:14,42.805,6.029,CST-1368DR,7978,11169,15386,0.059,551
2019-09-16T04:41:16,42.805,6.029,CST-1368DR,7978,11173,15391,0.058,550
2019-09-16T04:44:18,42.805,6.029,CST-1368DR,7978,11172,15391,0.058,551
2019-09-16T04:47:19,42.805,6.029,CST-1368DR,7978,11173,15392,0.058,551
2019-09-16T04:50:21,42.805,6.029,CST-1368DR,7978,11173,15391,0.058,551
2019-09-16T04:53:23,42.805,6.029,CST-1368DR,7978,11173,15391,0.058,551
2019-09-16T04:56:24,42.805,6.029,CST-1368DR,7978,11166,15382,0.060,550
2019-09-16T04:59:26,42.805,6.029,CST-1368DR,7978,11173,15392,0.058,551
2019-09-16T05:02:28,42.805,6.029,CST-1368DR,7978,11169,15386,0.059,551
2019-09-16T05:05:29,42.805,6.029,CST-1368DR,7978,11173,15392,0.058,551
2019-09-16T05:08:31,42.805,6.029,CST-1368DR,7978,11173,15392,0.058,551
2019-09-16T05:11:32,42.805,6.029,CST-1368DR,7978,11172,15391,0.058,551
2019-09-16T05:14:34,42.805,6.029,CST-1368DR,7978,11172,15390,0.058,551
2019-09-16T05:17:36,42.805,6.029,CST-1368DR,7978,11172,15390,0.058,551
2019-09-16T05:20:37,42.805,6.029,CST-1368DR,7978,11172,15391,0.058,551
2019-09-16T05:23:39,42.805,6.029,CST-1368DR,7978,11172,15390,0.058,551
2019-09-16T05:26:41,42.805,6.029,CST-1368DR,7978,11171,15389,0.059,551
2019-09-16T05:29:42,42.805,6.029,CST-1368DR,7978,11172,15390,0.058,551
2019-09-16T05:32:44,42.805,6.029,CST-1368DR,7978,11172,15391,0.058,551
2019-09-16T05:35:46,42.805,6.029,CST-1368DR,7978,11173,15391,0.058,550
2019-09-16T05:38:47,42.805,6.029,CST-1368DR,7978,11173,15391,0.058,551
2019-09-16T05:41:49,42.805,6.029,CST-1368DR,7978,11170,15387,0.059,551
2019-09-16T05:44:51,42.805,6.029,CST-1368DR,7978,11172,15390,0.058,551
2019-09-16T05:47:52,42.805,6.029,CST-1368DR,7978,11171,15389,0.059,550
2019-09-16T05:50:54,42.805,6.029,CST-1368DR,7978,11172,15390,0.058,551
2019-09-16T05:53:55,42.805,6.029,CST-1368DR,7978,11172,15391,0.058,551
2019-09-16T05:56:57,42.805,6.029,CST-1368DR,7978,11171,15389,0.059,551
2019-09-16T05:59:59,42.805,6.029,CST-1368DR,7978,11172,15390,0.058,551
2019-09-16T06:03:00,42.805,6.029,CST-1368DR,7977,11172,15391,0.058,550
2019-09-16T06:06:02,42.805,6.029,CST-1368DR,7977,11172,15391,0.058,550
2019-09-16T06:09:04,42.805,6.029,CST-1368DR,7977,11136,15342,0.071,551
2019-09-16T06:12:05,42.805,6.029,CST-1368DR,7977,11166,15384,0.060,551
2019-09-16T06:15:07,42.805,6.029,CST-1368DR,7978,11171,15389,0.059,550
2019-09-16T06:18:09,42.805,6.029,CST-1368DR,7977,11171,15391,0.058,550
2019-09-16T06:21:10,42.805,6.029,CST-1368DR,7978,11172,15390,0.058,551
2019-09-16T06:24:12,42.805,6.029,CST-1368DR,7977,11170,15389,0.059,551
2019-09-16T06:27:13,42.805,6.029,CST-1368DR,7977,11170,15389,0.059,551
2019-09-16T06:30:15,42.805,6.029,CST-1368DR,7977,11169,15388,0.059,551
2019-09-16T06:33:17,42.805,6.029,CST-1368DR,7977,11169,15387,0.059,551
2019-09-16T06:36:18,42.805,6.029,CST-1368DR,7977,11170,15390,0.058,551
2019-09-16T06:39:20,42.805,6.029,CST-1368DR,7977,11170,15389,0.059,551
2019-09-16T06:42:22,42.805,6.029,CST-1368DR,7975,10854,14957,0.172,550
2019-09-16T06:45:23,42.805,6.029,CST-1368DR,7977,11169,15388,0.059,551
2019-09-16T06:48:25,42.805,6.029,CST-1368DR,7977,11169,15388,0.059,551
2019-09-16T06:51:27,42.805,6.029,CST-1368DR,7977,11170,15389,0.059,550
2019-09-16T06:54:28,42.805,6.029,CST-1368DR,7977,11169,15388,0.059,551
2019-09-16T06:57:30,42.805,6.029,CST-1368DR,7977,11169,15388,0.059,551
2019-09-16T07:00:32,42.805,6.029,CST-1368DR,7975,10840,14938,0.178,551
2019-09-16T07:03:33,42.805,6.029,CST-1368DR,7977,11169,15388,0.059,551
2019-09-16T07:06:35,42.805,6.029,CST-1368DR,7977,11169,15387,0.059,550
2019-09-16T07:09:36,42.805,6.029,CST-1368DR,7977,11168,15387,0.059,551
2019-09-16T07:12:38,42.805,6.029,CST-1368DR,7977,11164,15381,0.061,551
2019-09-16T07:15:40,42.805,6.029,CST-1368DR,7977,11160,15376,0.062,551
2019-09-16T07:18:42,42.805,6.029,CST-1368DR,7977,11168,15387,0.059,551
2019-09-16T07:21:43,42.805,6.029,CST-1368DR,7977,11167,15385,0.060,551
2019-09-16T07:24:45,42.805,6.029,CST-1368DR,7977,11169,15388,0.059,551
2019-09-16T07:27:47,42.805,6.029,CST-1368DR,7977,11169,15387,0.059,551
2019-09-16T07:30:48,42.805,6.029,CST-1368DR,7977,11168,15387,0.059,551
2019-09-16T07:33:50,42.805,6.029,CST-1368DR,7977,11166,15383,0.060,551
2019-09-16T07:36:51,42.805,6.029,CST-1368DR,7977,11168,15386,0.059,551
2019-09-16T07:39:53,42.805,6.029,CST-1368DR,7977,11169,15387,0.059,551
2019-09-16T07:42:55,42.805,6.029,CST-1368DR,7977,11168,15386,0.059,551
2019-09-16T07:45:56,42.805,6.029,CST-1368DR,7977,11170,15389,0.059,551
2019-09-16T07:48:58,42.805,6.029,CST-1368DR,7977,11168,15386,0.059,551
2019-09-16T07:52:00,42.805,6.029,CST-1368DR,7977,11167,15385,0.060,551
2019-09-16T07:55:01,42.805,6.029,CST-1368DR,7977,11168,15386,0.059,551
2019-09-16T07:58:03,42.805,6.029,CST-1368DR,7977,11164,15381,0.061,551
2019-09-16T08:01:04,42.805,6.029,CST-1368DR,7977,11169,15388,0.059,551
2019-09-16T08:04:06,42.805,6.029,CST-1368DR,7977,11168,15387,0.059,551
2019-09-16T08:07:08,42.805,6.029,CST-1368DR,7977,11168,15387,0.059,551
2019-09-16T08:10:09,42.805,6.029,CST-1368DR,7977,11170,15389,0.059,551
2019-09-16T08:13:11,42.805,6.029,CST-1368DR,7977,11169,15388,0.059,551
2019-09-16T08:16:13,42.805,6.029,CST-1368DR,7977,11169,15388,0.059,551
2019-09-16T08:19:14,42.805,6.029,CST-1368DR,7977,11168,15387,0.059,551
2019-09-16T08:22:16,42.805,6.029,CST-1368DR,7976,11166,15386,0.059,551
2019-09-16T08:25:18,42.805,6.029,CST-1368DR,7976,11168,15388,0.059,551
2019-09-16T08:28:20,42.805,6.029,CST-1368DR,7976,11170,15391,0.058,551
2019-09-16T08:31:21,42.805,6.029,CST-1368DR,7976,11169,15389,0.059,550
2019-09-16T08:34:23,42.805,6.029,CST-1368DR,7976,11167,15387,0.059,551
2019-09-16T08:37:24,42.805,6.029,CST-1368DR,7976,11165,15384,0.060,551
2019-09-16T08:40:26,42.805,6.029,CST-1368DR,7976,11168,15389,0.059,550
2019-09-16T08:43:28,42.805,6.029,CST-1368DR,7976,11168,15388,0.059,551
2019-09-16T08:46:29,42.805,6.029,CST-1368DR,7976,11169,15389,0.059,551
2019-09-16T08:49:31,42.805,6.029,CST-1368DR,7976,11167,15387,0.059,550
2019-09-16T08:52:33,42.805,6.029,CST-1368DR,7976,11165,15384,0.060,551
2019-09-16T08:55:34,42.805,6.029,CST-1368DR,7976,11166,15385,0.060,551
2019-09-16T08:58:36,42.805,6.029,CST-1368DR,7976,11166,15385,0.060,551
2019-09-16T09:01:38,42.805,6.029,CST-1368DR,7976,11169,15389,0.059,551
2019-09-16T09:04:39,42.805,6.029,CST-1368DR,7976,11166,15385,0.060,551
2019-09-16T09:07:41,42.805,6.029,CST-1368DR,7976,11166,15385,0.060,551
2019-09-16T09:10:43,42.805,6.029,CST-1368DR,7976,11167,15386,0.059,550
2019-09-16T09:13:44,42.805,6.029,CST-1368DR,7976,11168,15388,0.059,550
2019-09-16T09:16:46,42.805,6.029,CST-1368DR,7976,11168,15388,0.059,551
2019-09-16T09:19:48,42.805,6.029,CST-1368DR,7976,11169,15389,0.059,551
2019-09-16T09:22:49,42.805,6.029,CST-1368DR,7976,11169,15390,0.058,551
2019-09-16T09:25:51,42.805,6.029,CST-1368DR,7976,11168,15388,0.059,551
2019-09-16T09:28:53,42.805,6.029,CST-1368DR,7976,11167,15387,0.059,551
2019-09-16T09:31:54,42.805,6.029,CST-1368DR,7976,11168,15388,0.059,551
2019-09-16T09:34:56,42.805,6.029,CST-1368DR,7976,11169,15390,0.058,551
2019-09-16T09:37:58,42.805,6.029,CST-1368DR,7976,11169,15389,0.059,551
2019-09-16T09:40:59,42.805,6.029,CST-1368DR,7976,11168,15388,0.059,551
2019-09-16T09:44:01,42.805,6.029,CST-1368DR,7976,11166,15386,0.059,551
2019-09-16T09:47:03,42.805,6.029,CST-1368DR,7976,11166,15386,0.059,551
2019-09-16T09:50:04,42.805,6.029,CST-1368DR,7976,11166,15385,0.060,551
2019-09-16T09:53:06,42.805,6.029,CST-1368DR,7976,11162,15380,0.061,550
2019-09-16T09:56:08,42.805,6.029,CST-1368DR,7976,11166,15386,0.059,551
2019-09-16T09:59:09,42.805,6.029,CST-1368DR,7975,11158,15376,0.062,551
2019-09-16T10:02:11,42.805,6.029,CST-1368DR,7975,11168,15390,0.058,550
2019-09-16T10:05:12,42.805,6.029,CST-1368DR,7975,11166,15387,0.059,551
2019-09-16T10:08:14,42.805,6.029,CST-1368DR,7975,11166,15387,0.059,551
2019-09-16T10:11:16,42.805,6.029,CST-1368DR,7975,11161,15381,0.061,551
2019-09-16T10:14:17,42.805,6.029,CST-1368DR,7975,11163,15384,0.060,551
2019-09-16T10:17:19,42.805,6.029,CST-1368DR,7975,11163,15383,0.060,551
2019-09-16T10:20:21,42.805,6.029,CST-1368DR,7975,11167,15388,0.059,551
2019-09-16T10:23:22,42.805,6.029,CST-1368DR,7975,11166,15387,0.059,550
2019-09-16T10:26:24,42.805,6.029,CST-1368DR,7975,11165,15386,0.059,551
2019-09-16T10:29:26,42.805,6.029,CST-1368DR,7975,11155,15373,0.063,551
2019-09-16T10:32:27,42.805,6.029,CST-1368DR,7975,11164,15385,0.060,551
2019-09-16T10:35:29,42.805,6.029,CST-1368DR,7975,11166,15387,0.059,551
2019-09-16T10:38:31,42.805,6.029,CST-1368DR,7975,11165,15386,0.059,550
2019-09-16T10:41:32,42.805,6.029,CST-1368DR,7975,11165,15386,0.059,550
2019-09-16T10:44:34,42.805,6.029,CST-1368DR,7975,11164,15385,0.060,551
2019-09-16T10:47:36,42.805,6.029,CST-1368DR,7974,11162,15384,0.060,551
2019-09-16T10:50:37,42.805,6.029,CST-1368DR,7974,11166,15388,0.059,551
2019-09-16T10:53:39,42.805,6.029,CST-1368DR,7974,11160,15381,0.061,550
2019-09-16T10:56:41,42.805,6.029,CST-1368DR,7974,11164,15386,0.059,551
2019-09-16T10:59:42,42.805,6.029,CST-1368DR,7975,11165,15385,0.060,551
2019-09-16T11:02:44,42.805,6.029,CST-1368DR,7974,11155,15373,0.063,551
2019-09-16T11:05:45,42.805,6.029,CST-1368DR,7974,11163,15385,0.060,551
2019-09-16T11:08:47,42.805,6.029,CST-1368DR,7974,11160,15381,0.061,551
2019-09-16T11:11:49,42.805,6.029,CST-1368DR,7975,11161,15381,0.061,550
2019-09-16T11:14:50,42.805,6.029,CST-1368DR,7975,11164,15385,0.060,551
2019-09-16T11:17:52,42.805,6.029,CST-1368DR,7975,11159,15378,0.061,551
2019-09-16T11:20:54,42.805,6.029,CST-1368DR,7975,11164,15385,0.060,551
2019-09-16T11:23:55,42.805,6.029,CST-1368DR,7975,11165,15386,0.059,551
2019-09-16T11:26:57,42.805,6.029,CST-1368DR,7974,11164,15386,0.059,551
2019-09-16T11:29:59,42.805,6.029,CST-1368DR,7974,11165,15387,0.059,551
2019-09-16T11:33:00,42.805,6.029,CST-1368DR,7974,11165,15388,0.059,551
2019-09-16T11:36:02,42.805,6.029,CST-1368DR,7974,11166,15389,0.059,551
2019-09-16T11:39:03,42.805,6.029,CST-1368DR,7974,11166,15389,0.059,551
2019-09-16T11:42:05,42.805,6.029,CST-1368DR,7974,11165,15388,0.059,551
2019-09-16T11:45:07,42.805,6.029,CST-1368DR,7974,11161,15382,0.060,550
2019-09-16T11:48:08,42.805,6.029,CST-1368DR,7974,11163,15385,0.060,550
2019-09-16T11:51:10,42.805,6.029,CST-1368DR,7974,11162,15383,0.060,551
2019-09-16T11:54:12,42.805,6.029,CST-1368DR,7974,11165,15387,0.059,551
2019-09-16T11:57:13,42.805,6.029,CST-1368DR,7974,11162,15384,0.060,551
2019-09-16T12:00:15,42.805,6.029,CST-1368DR,7974,11165,15388,0.059,551
2019-09-16T12:03:16,42.805,6.029,CST-1368DR,7975,11162,15382,0.060,551
2019-09-16T12:06:18,42.805,6.029,CST-1368DR,7975,11165,15386,0.059,551
2019-09-16T12:09:20,42.805,6.029,CST-1368DR,7975,11163,15384,0.060,550
2019-09-16T12:12:22,42.805,6.029,CST-1368DR,7975,11165,15386,0.059,551
2019-09-16T12:15:23,42.805,6.029,CST-1368DR,7975,11166,15387,0.059,551
2019-09-16T12:18:25,42.805,6.029,CST-1368DR,7975,11163,15383,0.060,551
2019-09-16T12:21:26,42.805,6.029,CST-1368DR,7975,11161,15380,0.061,551
2019-09-16T12:24:28,42.805,6.029,CST-1368DR,7975,11166,15387,0.059,551
2019-09-16T12:27:30,42.805,6.029,CST-1368DR,7975,11162,15381,0.061,551
2019-09-16T12:30:31,42.805,6.029,CST-1368DR,7975,11167,15389,0.059,551
2019-09-16T12:33:33,42.805,6.029,CST-1368DR,7975,11164,15385,0.060,551
2019-09-16T12:36:35,42.805,6.029,CST-1368DR,7975,11163,15384,0.060,551
2019-09-16T12:39:36,42.805,6.029,CST-1368DR,7975,11163,15383,0.060,550
2019-09-16T12:42:38,42.805,6.029,CST-1368DR,7975,11163,15384,0.060,551
2019-09-16T12:45:40,42.805,6.029,CST-1368DR,7974,11165,15388,0.059,550
2019-09-16T12:48:41,42.805,6.029,CST-1368DR,7974,11162,15384,0.060,551
2019-09-16T12:51:43,42.805,6.029,CST-1368DR,7975,11164,15384,0.060,551
2019-09-16T12:54:44,42.805,6.029,CST-1368DR,7975,11167,15388,0.059,551
2019-09-16T12:57:46,42.805,6.029,CST-1368DR,7975,11167,15388,0.059,550
2019-09-16T13:00:48,42.805,6.029,CST-1368DR,7975,11165,15386,0.059,550
2019-09-16T13:03:49,42.805,6.029,CST-1368DR,7975,11167,15389,0.059,551
2019-09-16T13:06:51,42.805,6.029,CST-1368DR,7975,11168,15389,0.059,551
2019-09-16T13:09:53,42.805,6.029,CST-1368DR,7975,11167,15388,0.059,551
2019-09-16T13:12:54,42.805,6.029,CST-1368DR,7975,11167,15388,0.059,551
2019-09-16T13:15:56,42.805,6.029,CST-1368DR,7975,11166,15388,0.059,551
2019-09-16T13:18:58,42.805,6.029,CST-1368DR,7975,11163,15383,0.060,551
2019-09-16T13:21:59,42.805,6.029,CST-1368DR,7975,11166,15388,0.059,551
2019-09-16T13:25:01,42.805,6.029,CST-1368DR,7974,11167,15390,0.058,551
2019-09-16T13:28:03,42.805,6.029,CST-1368DR,7975,11164,15385,0.060,551
2019-09-16T13:31:04,42.805,6.029,CST-1368DR,7974,11167,15391,0.058,551
2019-09-16T13:34:06,42.805,6.029,CST-1368DR,7974,11163,15385,0.060,551
2019-09-16T13:37:08,42.805,6.029,CST-1368DR,7974,11165,15387,0.059,551
2019-09-16T13:40:09,42.805,6.029,CST-1368DR,7974,11162,15383,0.060,551
2019-09-16T13:43:11,42.805,6.029,CST-1368DR,7975,11166,15387,0.059,551
2019-09-16T13:46:12,42.805,6.029,CST-1368DR,7975,11166,15387,0.059,551
2019-09-16T13:49:14,42.805,6.029,CST-1368DR,7975,11166,15387,0.059,551
2019-09-16T13:52:16,42.805,6.029,CST-1368DR,7975,11166,15387,0.059,551
2019-09-16T13:55:17,42.805,6.029,CST-1368DR,7975,11163,15384,0.060,551
2019-09-16T13:58:20,42.805,6.029,CST-1368DR,7974,11149,15366,0.065,551
2019-09-16T14:01:21,42.805,6.029,CST-1368DR,7975,11165,15385,0.060,551
2019-09-16T14:04:23,42.805,6.029,CST-1368DR,7974,11165,15387,0.059,551
2019-09-16T14:07:25,42.805,6.029,CST-1368DR,7974,11165,15388,0.059,551
2019-09-16T14:10:26,42.805,6.029,CST-1368DR,7974,11164,15387,0.059,551
2019-09-16T14:13:28,42.805,6.029,CST-1368DR,7974,11164,15387,0.059,551
2019-09-16T14:16:29,42.805,6.029,CST-1368DR,7974,11162,15383,0.060,550
2019-09-16T14:19:31,42.805,6.029,CST-1368DR,7974,11166,15389,0.059,551
2019-09-16T14:22:33,42.805,6.029,CST-1368DR,7974,11165,15387,0.059,550
2019-09-16T14:25:34,42.805,6.029,CST-1368DR,7974,11164,15386,0.059,550
2019-09-16T14:28:36,42.805,6.029,CST-1368DR,7974,11166,15389,0.059,551
2019-09-16T14:31:38,42.805,6.029,CST-1368DR,7974,11165,15387,0.059,551
2019-09-16T14:34:39,42.805,6.029,CST-1368DR,7974,11166,15388,0.059,551
2019-09-16T14:37:41,42.805,6.029,CST-1368DR,7974,11164,15386,0.059,551
2019-09-16T14:40:43,42.805,6.029,CST-1368DR,7974,11165,15388,0.059,551
2019-09-16T14:43:44,42.805,6.029,CST-1368DR,7974,11165,15388,0.059,551
2019-09-16T14:46:46,42.805,6.029,CST-1368DR,7974,11166,15389,0.059,551
2019-09-16T14:49:48,42.805,6.029,CST-1368DR,7974,11165,15387,0.059,551
2019-09-16T14:52:49,42.805,6.029,CST-1368DR,7974,11163,15384,0.060,550
2019-09-16T14:55:51,42.805,6.029,CST-1368DR,7974,11165,15387,0.059,551
2019-09-16T14:58:52,42.805,6.029,CST-1368DR,7974,11165,15387,0.059,551
2019-09-16T15:01:54,42.805,6.029,CST-1368DR,7974,11165,15388,0.059,551
2019-09-16T15:04:56,42.805,6.029,CST-1368DR,7974,11165,15388,0.059,550
2019-09-16T15:07:57,42.805,6.029,CST-1368DR,7974,11165,15388,0.059,551
2019-09-16T15:10:59,42.805,6.029,CST-1368DR,7974,11164,15386,0.059,551
2019-09-16T15:14:01,42.805,6.029,CST-1368DR,7974,11164,15387,0.059,551
2019-09-16T15:17:02,42.805,6.029,CST-1368DR,7974,11166,15388,0.059,551
2019-09-16T15:20:04,42.805,6.029,CST-1368DR,7974,11164,15386,0.059,551
2019-09-16T15:23:06,42.805,6.029,CST-1368DR,7974,11163,15385,0.060,551
2019-09-16T15:26:07,42.805,6.029,CST-1368DR,7974,11164,15387,0.059,551
2019-09-16T15:29:09,42.805,6.029,CST-1368DR,7974,11165,15388,0.059,551
2019-09-16T15:32:10,42.805,6.029,CST-1368DR,7974,11164,15386,0.059,550
2019-09-16T15:35:12,42.805,6.029,CST-1368DR,7974,11165,15387,0.059,550
2019-09-16T15:38:14,42.805,6.029,CST-1368DR,7974,11165,15388,0.059,551
2019-09-16T15:41:15,42.805,6.029,CST-1368DR,7974,11164,15387,0.059,551
2019-09-16T15:44:17,42.805,6.029,CST-1368DR,7974,11165,15387,0.059,551
2019-09-16T15:47:19,42.805,6.029,CST-1368DR,7974,11165,15387,0.059,551
2019-09-16T15:50:21,42.805,6.029,CST-1368DR,7974,11164,15387,0.059,551
2019-09-16T15:53:22,42.805,6.029,CST-1368DR,7974,11165,15387,0.059,551
2019-09-16T15:56:24,42.805,6.029,CST-1368DR,7974,11165,15388,0.059,551
2019-09-16T15:59:25,42.805,6.029,CST-1368DR,7974,11167,15390,0.058,551
2019-09-16T16:02:27,42.805,6.029,CST-1368DR,7974,11166,15388,0.059,551
2019-09-16T16:05:29,42.805,6.029,CST-1368DR,7974,11165,15388,0.059,550
2019-09-16T16:08:30,42.805,6.029,CST-1368DR,7974,11165,15388,0.059,550
2019-09-16T16:11:32,42.805,6.029,CST-1368DR,7974,11165,15388,0.059,551
2019-09-16T16:14:34,42.805,6.029,CST-1368DR,7974,11166,15389,0.059,551
2019-09-16T16:17:35,42.805,6.029,CST-1368DR,7974,11167,15390,0.058,551
2019-09-16T16:20:37,42.805,6.029,CST-1368DR,7974,11163,15385,0.060,551
2019-09-16T16:23:39,42.805,6.029,CST-1368DR,7974,11164,15386,0.059,551
2019-09-16T16:26:40,42.805,6.029,CST-1368DR,7973,11163,15386,0.059,551
2019-09-16T16:29:42,42.805,6.029,CST-1368DR,7974,11164,15386,0.059,551
2019-09-16T16:32:44,42.805,6.029,CST-1368DR,7973,11160,15383,0.060,551
2019-09-16T16:35:45,42.805,6.029,CST-1368DR,7973,11165,15389,0.059,551
2019-09-16T16:38:47,42.805,6.029,CST-1368DR,7973,11164,15387,0.059,551